Regional Weather Roundup
Issued by NWS Burlington, VT

Home | Current Version | Previous Version | Text Only | Print | Product List | Glossary On
Versions: 1 2 3 4 5 6 7 8 9 10 11 12 13 14 15 16 17 18 19 20 21 22 23 24 25 26 27 28 29 30 31 32 33 34 35 36 37 38 39 40 41 42 43 44 45 46 47 48 49 50
000
ASUS41 KBTV 230930
RWRBTV
VERMONT REGIONAL WEATHER ROUNDUP
NATIONAL WEATHER SERVICE BURLINGTON VT
500 AM EDT MON OCT 23 2017

NOTE: "FAIR" INDICATES FEW OR NO CLOUDS BELOW 12,000 FEET WITH NO
SIGNIFICANT WEATHER AND/OR OBSTRUCTIONS TO VISIBILITY.

* THESE REPORTS ARE NOT UNDER NWS QUALITY CONTROL AND/OR DO NOT
  REPORT WEATHER SUCH AS PRECIPITATION AND FOG.

VTZ001>019-231000-
_____VERMONT_____


CITY           SKY/WX    TMP DP  RH WIND       PRES   REMARKS
BURLINGTON     CLEAR     60  39  45 S12       30.23F
ST. JOHNSBURY*   N/A     42  42 100 MISG      30.31S
LYNDONVILLE*   FAIR      51  46  84 SE9       30.33S
MIDDLEBURY*    FAIR      48  40  72 CALM      30.26S
RUTLAND*       CLEAR     51  40  65 SE12      30.29F
SPRINGFIELD    CLEAR     40  39  97 CALM      30.35S
HIGHGATE*      FAIR      63  37  39 S10G16    30.21F
NEWPORT*       FAIR      51  46  84 S8        30.28S
BENNINGTON     CLOUDY    54  36  50 SE5       30.30S
ISLAND POND*     N/A     36 N/A N/A CALM        N/A
GALLUP MILLS*    N/A     37 N/A N/A MISG        N/A
UNION VILLAGE*   N/A     41 N/A N/A MISG        N/A
MT. MANSFIELD*   N/A     55 N/A N/A SW21G41     N/A

_____LAKE CHAMPLAIN_____


CITY           SKY/WX    TMP DP  RH WIND       PRES   REMARKS
BURTON ISLAND*   N/A     64  45  48 S21         N/A
COLCHESTER RF*   N/A     61  50  67 S24         N/A
DIAMOND ISL*     N/A     59  45  58 S8          N/A

$$

NYZ007-026>031-035-052-083-087-231000-
_____NORTHERN NEW YORK_____


CITY           SKY/WX    TMP DP  RH WIND       PRES   REMARKS
PLATTSBURGH    CLEAR     42  41  96 CALM      30.21F
SARANAC LAKE   CLEAR     34  34 100 CALM      30.23R
MASSENA        PTCLDY    43  42  97 CALM      30.19S
OGDENSBURG*    FAIR      58  46  63 S5        30.16S
POTSDAM*       CLEAR     61  45  55 S7        30.18S
STARK FALLS*     N/A     61 N/A N/A S14         N/A
WATERTOWN      MOCLDY    62  47  57 S9        30.15S
ALBANY         CLOUDY    48  40  73 CALM      30.29S
GLENS FALLS    CLEAR     40  38  93 CALM      30.28S

$$
NHZ002-005-011-231000-
_____NEW HAMPSHIRE_____


CITY           SKY/WX    TMP DP  RH WIND       PRES   REMARKS
LEBANON        CLEAR     40  39  97 CALM      30.32F FOG
KEENE          FOG       39  38  96 CALM      30.36S VSB 1/2
MT WASHINGTON  PTCLDY    45  25  45 SW46G53     N/A
PLYMOUTH       CLOUDY    51  49  93 E3        30.37S
WHITEFIELD     CLEAR     32  31  96 CALM      30.33S

$$

_____REGIONAL QUEBEC LOCATIONS_____


CITY           SKY/WX    TMP DP  RH WIND       PRES   REMARKS
MONTREAL       PTCLDY    45  43  93 N5        30.20S
QUEBEC CITY    PTCLDY    39  37  93 N5        30.27S
SHERBROOKE     CLEAR     45  43  93 E3        30.25F

_____REGIONAL ONTARIO LOCATIONS_____


CITY           SKY/WX    TMP DP  RH WIND       PRES   REMARKS
OTTAWA         PTCLDY    52  45  76 SE8       30.15F

______KEY______
VSB  - VISIBILITY IN MILES
WCI  - WIND CHILL INDEX
HX   - HEAT INDEX
$$
NNNN



USA.gov is the U.S. government's official web portal to all federal, state and local government web resources and services.